| time (UTC) | temp C | wind direction | speed KPH | gust KPH | rain 1hr cm | rain 24hr cm | rain mn cm | humidity % | barometer mb |
| 20260508000907 | 8 | 337 | 0.0 | 0.0 | 0.00 | 0.00 | 0.00 | 100 | 1013.6 |
| 20260508000514 | 8 | 337 | 0.0 | 0.0 | 0.00 | 0.00 | 0.00 | 100 | 1013.4 |
| 20260507230308 | 10 | 180 | 0.0 | 0.0 | 0.00 | 0.00 | 0.00 | 100 | 1013.7 |
| 20260507215708 | 11 | 180 | 0.0 | 0.0 | 0.00 | 0.00 | 0.00 | 100 | 1013.7 |
| 20260507205109 | 12 | 178 | 1.6 | 4.8 | 0.00 | 0.00 | 0.00 | 92 | 1013.4 |
| 20260507194510 | 13 | 159 | 1.6 | 4.8 | 0.00 | 0.00 | 0.00 | 77 | 1012.5 |
| 20260507184304 | 15 | 310 | 4.8 | 14.5 | 0.00 | 0.00 | 0.00 | 69 | 1011.7 |
| 20260507184043 | 15 | 333 | 4.8 | 11.3 | 0.00 | 0.00 | 0.00 | 69 | 1011.8 |
| 20260507183911 | 15 | 333 | 4.8 | 11.3 | 0.00 | 0.00 | 0.00 | 69 | 1011.8 |
| 20260507173705 | 16 | 337 | 3.2 | 6.4 | 0.00 | 0.00 | 0.00 | 59 | 1010.7 |
| 20260507173312 | 17 | 304 | 1.6 | 8.0 | 0.00 | 0.00 | 0.00 | 58 | 1010.7 |
| 20260507163105 | 21 | 283 | 16.1 | 19.3 | 0.00 | 0.00 | 0.00 | 41 | 1010.1 |
| 20260507152506 | 19 | 301 | 3.2 | 11.3 | 0.00 | 0.00 | 0.00 | 47 | 1009.8 |
| 20260507141907 | 22 | 270 | 6.4 | 6.4 | 0.00 | 0.00 | 0.00 | 41 | 1009.5 |
| 20260507131308 | 23 | 297 | 8.0 | 11.3 | 0.00 | 0.00 | 0.00 | 39 | 1009.8 |
| 20260507121102 | 21 | 309 | 6.4 | 16.1 | 0.00 | 0.00 | 0.00 | 46 | 1009.8 |
| 20260507120709 | 20 | 292 | 9.7 | 16.1 | 0.00 | 0.00 | 0.00 | 47 | 1009.9 |
| 20260507110503 | 18 | 296 | 9.7 | 17.7 | 0.00 | 0.00 | 0.00 | 51 | 1010.0 |
| 20260507095903 | 19 | 278 | 11.3 | 17.7 | 0.00 | 0.00 | 0.00 | 51 | 1009.8 |
| 20260507085306 | 20 | 335 | 6.4 | 16.1 | 0.00 | 0.00 | 0.00 | 52 | 1009.2 |
| 20260507074705 | 18 | 312 | 8.0 | 20.9 | 0.00 | 0.00 | 0.00 | 54 | 1008.9 |
| 20260507064458 | 15 | 211 | 6.4 | 16.1 | 0.00 | 0.00 | 0.00 | 100 | 1009.0 |
| 20260507064106 | 15 | 289 | 12.9 | 16.1 | 0.00 | 0.00 | 0.00 | 100 | 1009.1 |
| 20260507053859 | 13 | 184 | 8.0 | 11.3 | 0.00 | 0.00 | 0.00 | 100 | 1008.8 |
| 20260507053507 | 13 | 112 | 1.6 | 1.6 | 0.00 | 0.00 | 0.00 | 100 | 1008.8 |
| 20260507043340 | 11 | 135 | 1.6 | 1.6 | 0.00 | 0.00 | 0.00 | 100 | 1008.0 |
| 20260507042947 | 12 | 118 | 0.0 | 0.0 | 0.00 | 0.00 | 0.00 | 100 | 1008.0 |
| 20260507032820 | 12 | 283 | 6.4 | 12.9 | 0.00 | 0.00 | 0.00 | 100 | 1007.5 |
| 20260507032427 | 12 | 114 | 1.6 | 1.6 | 0.00 | 0.00 | 0.00 | 100 | 1007.4 |
| 20260507022300 | 13 | 270 | 3.2 | 6.4 | 0.00 | 0.00 | 0.00 | 100 | 1007.1 |
| 20260507021907 | 13 | 112 | 0.0 | 0.0 | 0.00 | 0.00 | 0.00 | 100 | 1007.0 |
| 20260507011840 | 13 | 337 | 4.8 | 9.7 | 0.00 | 0.00 | 0.00 | 100 | 1006.6 |
| 20260507011740 | 13 | 337 | 4.8 | 9.7 | 0.00 | 0.00 | 0.00 | 100 | 1006.6 |
| 20260507011347 | 13 | 122 | 1.6 | 1.6 | 0.00 | 0.00 | 0.00 | 100 | 1006.5 |